Weather History for KLNS - October, 2013

Change the Weather History Date:

Friday, October 4, 2013

  Actual Average Record
Temperature  
Mean Temperature 70 °F -  
Max Temperature 84 °F 68 °F 84 °F (1983)
Min Temperature 57 °F 47 °F 32 °F (1996)
Cooling Degree Days 6    
Growing Degree Days 20 (Base 50)    
Moisture  
Dew Point 62 °F    
Average Humidity 83    
Maximum Humidity 100    
Minimum Humidity 47    
Precipitation  
Precipitation 0.03 in - - ()
Sea Level Pressure  
Sea Level Pressure 30.05 in    
Wind  
Wind Speed 1 mph (WNW)    
Max Wind Speed 10 mph    
Max Gust Speed -    
Visibility 4 miles    
Events Fog , Thunderstorm    
Averages and records for this station are not official NWS values.
T = Trace of Precipitation, MM = Missing Value Source: NWS Daily Summary

Daily Weather History Graph

Daily Weather History Graph

Search for Another Location

Airport or City:

Trip Planner

Search our weather history database for the weather conditions in past years. The results will help you decide how hot, cold, wet, or windy it might be!

Date:

Astronomy

Oct. 04, 2013 Rise Set
Actual Time 7:04 AM EDT 6:42 PM EDT
Civil Twilight 6:37 AM EDT 7:09 PM EDT
Nautical Twilight 6:06 AM EDT 7:40 PM EDT
Astronomical Twilight 5:34 AM EDT 8:12 PM EDT
Moon 6:37 AM EDT (10/4) 6:23 PM EDT (10/4)
Length of Visible Light 12h 31m
Length of Day
11h 37m
Waning Crescent, 0% of the Moon is Illuminated
Oct 4
Waning Crescent
Oct 4
New
Oct 11
First Quarter
Oct 18
Full
Oct 26
Last Quarter

Hourly Weather History & Observations

Time (EDT) Temp. Heat Index Dew Point Humidity Pressure Visibility Wind Dir Wind Speed Gust Speed Precip Events Conditions
12:53 AM 64.9 °F - 62.1 °F 90% 30.06 in 3.0 mi Calm Calm - N/A   Clear
1:18 AM 64.4 °F - 62.6 °F 94% 30.06 in 2.5 mi Calm Calm - N/A   Clear
1:53 AM 63.0 °F - 61.0 °F 93% 30.05 in 2.5 mi Calm Calm - N/A   Clear
2:53 AM 63.0 °F - 61.0 °F 93% 30.06 in 2.0 mi Calm Calm - N/A   Clear
3:33 AM 62.6 °F - 60.8 °F 94% 30.05 in 1.5 mi Calm Calm - N/A   Clear
3:53 AM 62.1 °F - 61.0 °F 96% 30.05 in 1.2 mi Calm Calm - N/A   Clear
4:36 AM 60.8 °F - 60.8 °F 100% 30.05 in 0.5 mi Calm Calm - N/A Fog Fog
4:53 AM 59.0 °F - 59.0 °F 100% 30.05 in 0.2 mi Calm Calm - N/A Fog Fog
5:02 AM 60.8 °F - 59.0 °F 94% 30.05 in 1.0 mi Calm Calm - N/A   Mostly Cloudy
5:30 AM 60.8 °F - 59.0 °F 94% 30.06 in 2.0 mi Calm Calm - N/A   Scattered Clouds
5:37 AM 60.8 °F - 60.8 °F 100% 30.05 in 1.5 mi Calm Calm - N/A   Partly Cloudy
5:53 AM 61.0 °F - 60.1 °F 97% 30.05 in 1.2 mi Calm Calm - N/A   Clear
6:39 AM 57.2 °F - 57.2 °F 100% 30.07 in 0.8 mi Calm Calm - N/A   Mist
6:46 AM 59.0 °F - 57.2 °F 94% 30.06 in 1.2 mi Calm Calm - N/A   Partly Cloudy
6:53 AM 60.1 °F - 59.0 °F 96% 30.06 in 1.0 mi Calm Calm - N/A   Clear
7:09 AM 59.0 °F - 57.2 °F 94% 30.07 in 1.5 mi Calm Calm - N/A   Partly Cloudy
7:16 AM 59.0 °F - 57.2 °F 94% 30.07 in 0.8 mi Calm Calm - N/A   Mist
7:39 AM 60.8 °F - 59.0 °F 94% 30.08 in 0.5 mi Calm Calm - N/A Fog Fog
7:53 AM 61.0 °F - 60.1 °F 97% 30.07 in 0.8 mi Calm Calm - N/A   Clear
8:24 AM 62.6 °F - 62.6 °F 100% 30.08 in 1.0 mi Calm Calm - N/A   Scattered Clouds
8:53 AM 66.0 °F - 63.0 °F 90% 30.09 in 1.2 mi Calm Calm - N/A   Partly Cloudy
9:22 AM 68.0 °F - 62.6 °F 83% 30.09 in 2.0 mi Calm Calm - N/A   Haze
9:53 AM 68.0 °F - 63.0 °F 84% 30.09 in 2.5 mi WNW 4.6 mph - N/A   Haze
10:30 AM 69.8 °F - 64.4 °F 83% 30.09 in 3.0 mi WNW 6.9 mph - N/A   Haze
10:53 AM 72.0 °F - 64.0 °F 76% 30.08 in 3.0 mi West 4.6 mph - N/A   Haze
11:53 AM 75.9 °F - 64.0 °F 67% 30.07 in 5.0 mi Calm Calm - N/A   Haze
12:53 PM 82.0 °F 83.4 °F 64.0 °F 54% 30.04 in 8.0 mi WNW 5.8 mph - N/A   Scattered Clouds
1:53 PM 82.9 °F 83.7 °F 62.1 °F 49% 30.02 in 10.0 mi West 5.8 mph - N/A   Partly Cloudy
2:53 PM 84.0 °F 84.9 °F 63.0 °F 49% 30.01 in 10.0 mi WNW 8.1 mph - N/A   Clear
3:53 PM 84.0 °F 84.5 °F 62.1 °F 47% 30.01 in 10.0 mi NW 8.1 mph - N/A   Clear
4:53 PM 82.9 °F 83.7 °F 62.1 °F 49% 30.00 in 10.0 mi NW 4.6 mph - N/A   Partly Cloudy
5:53 PM 82.0 °F 82.7 °F 61.0 °F 49% 30.00 in 10.0 mi Calm Calm - N/A   Clear
6:53 PM 78.1 °F - 63.0 °F 60% 30.01 in 10.0 mi Calm Calm - N/A   Clear
7:53 PM 72.0 °F - 63.0 °F 73% 30.02 in 10.0 mi Calm Calm - N/A   Clear
8:53 PM 70.0 °F - 63.0 °F 78% 30.03 in 10.0 mi Calm Calm - N/A   Clear
9:53 PM 69.1 °F - 63.0 °F 81% 30.03 in 8.0 mi Calm Calm - N/A   Scattered Clouds
10:53 PM 69.1 °F - 64.0 °F 84% 30.04 in 8.0 mi Calm Calm - N/A Thunderstorm Overcast
11:20 PM 71.6 °F - 64.4 °F 78% 30.05 in 5.0 mi North 10.4 mph - 0.01 in   Haze
11:53 PM 70.0 °F - 66.9 °F 90% 30.04 in 6.0 mi Calm Calm - 0.03 in   Mostly Cloudy